Temp
62 64 64 65 65 65 65 65 65 65 64 64 65 64 65 65 68 66 62 66 66 70 67 62 63 63 61 59 57 53 48 43 46 46 50 54 50 47 47 48 45 47 46 49 51
61 61 64 64 64 64 65 65 65 64 64 64 64 64 65 65 65 63 70 73 71 71 64 63 61 62 58 56 55 51 46 48 51 49 49 52 51 50 47 44 44 43 46 48 49
60 60 61 63 64 64 65 64 64 64 64 64 64 64 64 63 62 62 72 72 71 68 63 61 60 59 55 53 52 48 48 50 52 53 53 52 49 49 48 43 47 45 46 46 44
60 59 59 62 62 63 64 64 64 64 64 63 63 63 64 63 53 62 70 70 70 65 64 62 61 56 51 50 52 48 51 52 55 54 51 50 49 48 48 50 48 49 49 44 44
60 60 59 61 61 63 63 64 64 63 63 63 63 64 62 58 62 64 69 68 65 64 61 60 58 52 50 49 52 48 49 52 53 54 52 52 50 50 47 46 46 47 46 44 44
60 59 60 60 61 62 63 63 64 63 63 63 63 63 60 55 64 64 63 64 63 62 58 60 56 55 52 49 48 48 49 51 52 52 51 50 46 47 47 43 44 46 44 43 43
59 59 59 60 61 61 62 62 63 63 63 63 64 63 58 63 62 62 65 59 59 59 58 56 56 56 51 49 50 48 48 49 47 49 50 49 46 45 45 44 43 43 42 42 43
59 59 59 60 60 61 61 62 62 62 63 63 64 59 58 62 61 62 61 60 61 60 59 57 56 55 51 51 50 45 43 42 46 49 47 48 43 50 44 43 42 41 39 41 42
59 58 59 59 60 60 61 61 61 63 64 63 58 58 57 65 59 60 59 59 58 58 57 63 56 49 50 44 43 42 39 38 46 49 46 46 44 49 43 42 42 41 40 41 40
59 59 59 59 59 60 60 61 62 62 62 63 65 56 58 57 58 58 57 60 57 55 55 55 48 46 43 43 39 39 36 39 40 45 43 42 45 52 44 41 44 43 41 40 41
60 60 60 59 59 60 56 58 60 57 57 58 55 55 55 57 58 56 57 57 55 52 48 47 46 44 47 45 44 41 38 38 41 46 43 43 45 51 51 40 41 39 38 40 41
60 60 60 60 59 59 52 53 46 47 49 54 52 54 55 55 53 55 59 54 51 47 46 45 43 48 47 44 44 40 36 37 41 41 41 41 41 47 51 45 44 44 40 41 41
60 60 60 59 58 54 49 46 49 47 45 52 53 52 53 57 53 52 57 51 48 44 44 43 46 48 47 42 42 38 36 35 39 39 39 36 36 38 45 44 45 44 46 43 42
60 60 60 58 55 48 47 47 48 47 40 48 50 52 52 53 49 53 53 51 45 46 44 45 45 46 42 42 43 36 40 38 37 34 30 38 32 36 43 45 42 42 40 42 41
59 60 58 58 48 49 49 47 46 50 26 48 49 55 51 49 48 48 50 49 45 45 44 45 42 41 40 42 44 41 40 37 35 31 27 29 25 31 34 40 48 46 42 42 41
58 58 56 52 47 46 46 45 49 40 28 45 48 47 46 46 47 47 47 50 46 44 41 43 42 44 44 41 40 41 37 34 29 28 21 30 29 29 33 39 42 42 40 39 38
58 58 54 52 47 45 45 48 38 29 44 45 46 44 43 43 45 45 44 42 42 38 36 38 40 39 42 39 38 38 35 27 23 20 26 27 24 39 41 42 44 44 39 37 37
57 56 54 54 47 46 46 43 28 37 41 45 43 41 42 44 42 42 39 39 42 39 34 36 38 40 42 43 40 35 36 28 18 18 29 22 25 37 40 42 37 36 36 37 34
56 52 51 52 47 46 43 31 38 39 44 44 42 37 38 42 43 39 37 37 43 44 45 35 35 38 38 39 40 34 32 34 26 9 15 30 31 37 40 38 38 36 36 35 34
53 51 51 52 50 50 36 42 40 46 46 44 43 43 37 39 39 38 38 40 44 45 46 44 38 36 36 37 35 35 37 29 28 20 11 27 30 36 44 40 41 36 35 34 32
51 46 48 51 53 45 37 37 42 48 49 45 41 41 41 40 39 35 39 43 45 42 45 43 42 36 34 33 32 31 31 31 32 26 20 15 36 38 42 42 42 38 38 35 33
50 41 47 53 42 43 39 38 45 44 47 47 45 44 43 41 38 36 38 47 47 44 40 42 39 35 37 31 32 32 34 37 30 25 21 21 35 39 41 42 40 38 38 34 34
46 45 48 49 37 39 36 37 43 41 44 49 44 43 44 43 39 39 41 45 45 45 41 42 36 33 34 30 30 31 33 34 33 27 25 23 33 38 38 37 35 35 36 33 32
45 38 41 42 44 40 39 38 38 42 46 45 43 44 39 38 45 44 37 42 43 47 48 49 38 35 37 38 34 29 32 34 37 30 33 33 38 46 48 49 51 43 34 33 33
46 41 43 35 38 40 41 40 40 38 41 44 42 44 42 41 43 42 42 37 39 43 39 43 38 41 43 46 33 34 35 35 30 35 32 37 37 43 47 49 51 52 42 33 31
46 42 41 40 42 39 39 38 37 40 41 38 41 44 46 42 46 44 45 40 42 33 34 34 36 38 36 40 34 33 38 39 33 36 35 38 38 51 53 54 51 50 41 33 31
53 48 45 41 39 37 37 37 39 43 45 47 46 44 43 44 51 53 47 44 45 42 31 29 31 23 30 31 28 25 34 40 42 42 38 31 40 48 47 47 47 45 35 34 33
MSLP
1019.25 1018.70 1018.22 1017.87 1017.56 1017.18 1016.80 1016.36 1015.85 1015.52 1015.24 1014.86 1014.48 1014.44 1014.12 1013.71 1013.44 1013.37 1013.83 1013.91 1013.85 1013.59 1013.48 1013.44 1013.24 1013.30 1013.45 1014.27 1014.88 1015.41 1016.32 1016.96 1016.68 1016.59 1015.71 1015.88 1016.75 1017.78 1018.34 1019.07 1019.65 1019.91 1020.19 1020.00 1020.42
1019.60 1019.16 1018.58 1018.10 1017.70 1017.29 1016.90 1016.48 1016.07 1015.58 1015.22 1014.94 1014.57 1014.39 1014.15 1013.82 1013.65 1013.69 1013.78 1013.75 1013.55 1013.41 1013.37 1013.43 1013.59 1013.44 1014.06 1014.53 1015.14 1015.65 1016.39 1016.09 1015.70 1015.60 1015.53 1015.89 1016.62 1017.65 1018.58 1019.25 1019.85 1020.17 1020.35 1020.56 1020.88
1019.92 1019.50 1018.97 1018.37 1017.80 1017.32 1016.98 1016.54 1016.11 1015.64 1015.18 1014.84 1014.58 1014.40 1014.09 1013.89 1013.95 1013.61 1013.53 1013.60 1013.46 1013.33 1013.40 1013.42 1013.60 1013.72 1014.24 1014.61 1015.32 1015.70 1015.89 1015.61 1015.41 1015.36 1015.49 1015.96 1016.79 1017.44 1018.30 1019.24 1018.79 1018.95 1019.96 1020.72 1021.24
1020.07 1019.72 1019.26 1018.63 1018.06 1017.40 1016.95 1016.61 1016.19 1015.61 1015.09 1014.81 1014.50 1014.30 1014.07 1013.97 1014.27 1013.64 1013.53 1013.53 1013.44 1013.39 1013.42 1013.66 1013.83 1014.30 1014.92 1015.14 1015.38 1015.71 1015.74 1015.66 1015.50 1015.46 1015.74 1016.20 1016.93 1017.44 1017.78 1017.11 1017.75 1018.30 1019.35 1020.41 1021.16
1020.12 1019.82 1019.35 1018.69 1018.14 1017.56 1016.95 1016.44 1016.09 1015.72 1015.13 1014.68 1014.39 1014.27 1014.14 1014.24 1013.78 1013.56 1013.45 1013.41 1013.42 1013.48 1013.98 1014.04 1014.48 1015.00 1015.32 1015.47 1015.40 1015.67 1015.92 1015.76 1015.59 1015.77 1015.95 1016.33 1016.88 1017.48 1016.99 1017.18 1017.79 1018.68 1019.72 1020.44 1020.89
1020.18 1019.81 1019.33 1018.81 1018.24 1017.60 1016.89 1016.29 1015.96 1015.49 1014.97 1014.60 1014.25 1014.25 1014.35 1014.37 1013.53 1013.48 1013.42 1013.49 1013.75 1013.88 1014.40 1014.41 1014.83 1015.14 1015.50 1015.81 1015.91 1015.94 1016.00 1015.90 1015.73 1015.81 1016.06 1016.50 1017.07 1017.71 1016.73 1017.56 1018.48 1019.08 1019.70 1020.41 1020.97
1020.19 1019.82 1019.40 1018.81 1018.34 1017.67 1016.90 1016.04 1015.60 1015.33 1014.70 1014.53 1014.41 1014.47 1014.36 1013.82 1013.50 1013.63 1013.33 1013.90 1014.02 1014.12 1014.63 1015.03 1014.98 1015.17 1015.81 1016.00 1016.21 1016.21 1016.33 1015.95 1015.86 1015.84 1016.11 1016.38 1017.25 1017.13 1016.92 1017.95 1018.87 1019.57 1020.08 1020.62 1020.71
1020.18 1019.84 1019.36 1018.88 1018.31 1017.65 1016.90 1015.87 1015.27 1014.85 1014.52 1014.29 1014.39 1014.50 1014.15 1013.58 1013.56 1013.64 1013.91 1014.13 1014.25 1014.33 1014.70 1015.03 1015.09 1015.45 1015.98 1016.29 1016.49 1016.73 1016.79 1016.67 1016.09 1016.01 1016.23 1016.56 1016.22 1016.18 1016.77 1017.93 1018.86 1019.46 1020.05 1020.24 1020.46
1020.15 1019.83 1019.30 1018.80 1018.25 1017.63 1016.69 1015.53 1014.86 1014.57 1014.45 1014.37 1014.38 1014.41 1014.20 1013.59 1013.77 1013.85 1013.97 1014.32 1014.52 1014.86 1015.03 1015.07 1015.42 1016.33 1016.50 1016.95 1017.37 1017.74 1017.69 1017.47 1016.72 1016.22 1016.43 1016.79 1016.08 1015.88 1016.89 1017.84 1018.42 1018.82 1019.15 1019.55 1019.86
1020.14 1019.77 1019.30 1018.77 1018.27 1017.61 1016.56 1014.94 1014.25 1014.49 1014.51 1014.46 1014.51 1014.77 1013.90 1013.67 1013.82 1014.03 1014.18 1014.24 1014.68 1015.07 1015.29 1015.52 1016.25 1016.71 1017.29 1017.56 1017.91 1018.00 1018.12 1017.89 1017.58 1016.76 1016.87 1016.92 1015.98 1015.55 1016.47 1017.30 1017.15 1017.52 1018.32 1018.87 1019.23
1020.02 1019.62 1019.31 1018.76 1018.30 1017.68 1016.93 1015.37 1015.23 1015.32 1015.01 1014.49 1014.30 1014.18 1013.86 1013.97 1014.03 1014.17 1014.27 1014.50 1014.83 1015.21 1015.71 1016.11 1016.78 1016.69 1016.53 1016.98 1017.02 1017.46 1018.02 1018.29 1017.36 1016.91 1017.17 1016.42 1016.00 1014.78 1015.27 1015.97 1016.37 1016.70 1017.40 1017.88 1018.11
1019.86 1019.52 1019.17 1018.79 1018.24 1017.73 1017.56 1017.77 1018.47 1019.05 1017.00 1014.72 1014.37 1014.25 1013.90 1013.92 1014.32 1014.33 1014.32 1014.84 1015.28 1015.66 1016.03 1016.73 1016.31 1015.84 1016.15 1016.70 1017.20 1017.60 1018.17 1018.04 1017.54 1017.22 1017.59 1016.61 1015.63 1014.89 1013.95 1013.81 1014.08 1015.09 1015.92 1016.24 1017.36
1019.74 1019.53 1019.12 1018.61 1018.17 1018.00 1018.51 1018.97 1019.04 1018.84 1018.19 1015.25 1014.45 1014.04 1013.94 1014.07 1014.19 1014.21 1014.48 1014.76 1015.25 1015.90 1016.08 1016.36 1015.61 1015.63 1016.17 1016.91 1017.41 1017.67 1018.19 1018.07 1018.21 1018.08 1017.74 1017.25 1014.93 1014.09 1012.70 1012.65 1012.85 1013.51 1014.05 1015.19 1016.05
1019.65 1019.42 1019.03 1018.54 1018.35 1018.85 1018.98 1019.11 1018.97 1019.06 1018.26 1015.41 1014.53 1013.94 1014.15 1014.08 1014.37 1014.24 1014.39 1014.65 1015.30 1015.41 1016.24 1016.18 1015.36 1015.73 1016.32 1016.80 1017.22 1017.63 1017.15 1017.92 1018.60 1019.23 1019.16 1018.18 1014.98 1014.20 1012.94 1012.66 1012.29 1012.49 1013.42 1013.95 1015.00
1019.24 1019.26 1019.00 1018.81 1019.02 1018.80 1019.03 1019.09 1018.94 1018.75 1017.71 1014.57 1014.09 1013.93 1014.09 1014.59 1014.77 1014.69 1014.77 1014.64 1015.00 1015.42 1016.01 1014.85 1015.31 1015.99 1016.33 1016.29 1016.66 1017.01 1017.37 1018.24 1018.93 1019.65 1019.91 1018.81 1018.43 1013.78 1013.43 1013.02 1011.63 1011.36 1012.20 1013.04 1013.85
1018.64 1018.93 1019.05 1019.23 1019.27 1018.87 1018.74 1018.86 1019.05 1019.21 1016.96 1014.40 1013.85 1013.91 1014.21 1014.31 1014.55 1014.89 1014.87 1014.90 1015.14 1015.41 1015.67 1015.39 1015.36 1015.50 1015.58 1016.20 1016.69 1017.23 1018.01 1019.00 1020.04 1020.59 1020.09 1017.37 1017.28 1013.94 1012.96 1011.70 1011.41 1011.01 1011.68 1012.57 1013.60
1018.12 1018.37 1018.82 1019.06 1019.13 1018.97 1019.13 1018.91 1019.53 1017.94 1015.71 1014.04 1013.66 1013.98 1013.95 1014.30 1014.47 1014.61 1014.79 1014.99 1014.97 1015.60 1015.43 1015.21 1015.17 1015.26 1015.61 1016.59 1017.27 1017.70 1018.87 1020.19 1020.83 1021.28 1018.84 1017.33 1017.16 1011.73 1010.81 1010.03 1010.02 1010.67 1011.51 1012.18 1012.98
1017.53 1018.10 1018.39 1018.51 1018.89 1019.17 1019.26 1019.52 1017.89 1015.47 1014.59 1013.55 1013.70 1014.07 1014.15 1013.99 1014.28 1014.71 1014.98 1015.05 1014.47 1014.48 1015.21 1015.34 1014.89 1015.02 1015.30 1015.65 1016.45 1017.79 1018.44 1019.65 1020.41 1021.47 1019.08 1017.60 1014.30 1009.72 1009.11 1009.11 1009.71 1010.57 1011.27 1011.78 1012.64
1017.41 1017.84 1018.24 1018.36 1018.67 1019.46 1019.46 1018.38 1014.43 1014.33 1013.53 1013.35 1013.75 1013.98 1014.01 1013.81 1014.21 1014.81 1014.74 1013.99 1013.08 1013.12 1013.56 1014.30 1014.34 1014.70 1015.20 1015.46 1016.29 1017.74 1018.10 1018.05 1019.50 1021.60 1020.26 1015.28 1010.91 1009.46 1008.45 1008.76 1009.62 1010.27 1011.18 1011.55 1012.07
1016.91 1017.38 1016.89 1017.02 1018.31 1018.65 1019.10 1015.25 1013.59 1012.56 1012.23 1012.42 1012.78 1012.48 1012.99 1013.35 1014.21 1014.39 1013.75 1012.38 1012.24 1011.71 1011.25 1012.30 1013.93 1014.54 1015.50 1015.97 1016.62 1016.82 1017.15 1018.35 1019.23 1020.14 1018.93 1013.37 1010.08 1008.09 1007.85 1008.17 1008.64 1009.65 1010.41 1010.84 1011.68
1016.17 1016.56 1015.98 1015.94 1017.60 1018.14 1016.41 1014.11 1012.33 1011.46 1011.19 1011.51 1011.33 1011.56 1011.74 1012.32 1012.89 1013.14 1012.07 1011.44 1011.20 1011.46 1011.72 1012.27 1013.47 1014.73 1015.72 1015.46 1015.26 1016.92 1017.09 1017.59 1018.00 1017.92 1016.98 1014.70 1006.60 1005.42 1005.84 1006.47 1007.50 1008.29 1008.90 1009.64 1010.48
1014.51 1015.29 1015.23 1015.71 1016.64 1015.61 1013.78 1012.54 1011.50 1010.63 1010.61 1010.59 1010.47 1010.40 1010.59 1011.10 1011.47 1011.67 1011.15 1009.71 1009.52 1010.48 1011.84 1012.01 1012.56 1013.81 1013.30 1013.89 1014.58 1014.84 1014.93 1015.41 1016.23 1015.92 1015.43 1014.19 1006.43 1003.98 1004.65 1005.32 1006.25 1007.36 1008.15 1008.60 1009.43
1012.92 1013.97 1015.00 1014.37 1013.92 1013.40 1012.66 1012.00 1011.45 1010.61 1010.13 1010.21 1009.83 1009.50 1009.65 1009.82 1010.56 1009.88 1009.25 1008.56 1008.93 1009.58 1010.03 1010.93 1011.69 1012.85 1012.63 1013.84 1014.19 1014.03 1013.89 1013.54 1013.36 1013.21 1012.15 1012.71 1003.99 1003.26 1004.17 1004.71 1005.20 1006.35 1007.33 1008.19 1008.96
1011.25 1012.55 1013.95 1013.61 1011.42 1011.49 1012.01 1011.61 1011.32 1010.21 1009.93 1009.68 1009.41 1009.59 1009.68 1009.66 1008.90 1008.24 1008.51 1008.84 1008.66 1008.61 1008.69 1008.90 1009.68 1009.60 1009.79 1009.82 1010.83 1012.60 1012.09 1011.58 1011.60 1010.94 1009.95 1006.78 1004.39 999.46 1003.42 1003.40 1003.15 1004.83 1006.13 1006.89 1007.88
1009.09 1009.86 1010.56 1011.18 1010.47 1010.97 1011.21 1010.07 1009.75 1010.05 1009.63 1009.20 1009.08 1008.57 1008.64 1008.96 1008.77 1007.83 1008.45 1008.97 1009.31 1009.05 1009.48 1009.34 1009.03 1008.52 1008.27 1007.76 1009.62 1009.79 1009.67 1009.30 1009.50 1007.76 1007.98 1003.26 1004.48 999.23 1001.95 1001.48 1001.63 1003.22 1004.34 1005.89 1007.14
1007.22 1008.33 1009.52 1009.34 1009.77 1009.86 1009.59 1009.15 1009.17 1008.78 1008.98 1008.41 1007.72 1007.69 1007.68 1007.51 1006.29 1005.95 1007.33 1008.50 1009.05 1010.30 1010.29 1010.09 1009.03 1009.01 1008.28 1007.79 1008.95 1009.49 1006.37 1007.85 1006.69 1005.62 1005.58 1004.10 1001.18 999.42 1000.00 1000.64 1001.25 1001.90 1003.52 1004.70 1005.87
1006.35 1006.17 1006.58 1007.17 1007.85 1008.27 1007.01 1006.18 1005.92 1007.17 1007.39 1007.35 1007.31 1007.55 1007.32 1005.56 1005.97 1005.97 1007.10 1008.06 1008.55 1008.95 1009.58 1010.05 1009.92 1009.55 1007.87 1008.54 1009.10 1008.66 1002.37 1004.69 1003.51 1003.40 1003.26 1002.57 997.67 999.17 999.69 1000.20 1000.18 1001.38 1002.42 1003.44 1004.42
Wind_Speed
19 19 19 19 18 18 17 15 16 15 12 11 9 9 9 10 3 4 3 3 4 9 5 4 2 5 3 4 3 3 5 2 6 7 5 5 5 1 1 5 1 2 4 4 11
19 19 20 20 19 16 16 15 15 15 14 12 9 8 8 8 3 4 1 4 5 5 3 5 4 4 4 3 3 5 4 6 5 4 3 4 4 8 5 3 4 1 1 4 8
19 20 21 21 21 19 16 14 12 14 14 12 9 7 6 5 2 2 1 5 6 0 2 2 2 3 4 2 4 1 3 3 3 4 3 2 3 6 7 6 10 12 14 8 5
18 21 22 22 22 23 20 15 13 11 13 12 8 7 6 1 3 1 4 4 4 5 3 4 6 5 3 2 3 3 1 2 3 3 2 3 7 5 9 6 1 8 14 8 9
15 18 21 21 22 23 23 20 15 12 13 10 6 7 1 2 7 1 3 6 3 2 5 4 5 1 1 1 3 2 1 3 3 5 5 4 5 8 10 2 3 11 10 11 10
15 15 17 19 20 23 24 23 18 13 15 10 4 5 2 4 3 3 2 2 5 4 3 6 4 2 4 0 1 0 3 5 6 6 4 4 2 4 2 5 7 12 11 9 9
16 16 17 18 20 22 24 24 21 15 14 7 1 2 2 11 2 3 5 2 2 2 4 2 3 4 2 1 2 1 5 6 3 3 4 4 6 11 4 7 9 9 7 8 10
16 16 17 19 20 22 24 26 22 17 9 2 2 1 7 1 1 2 2 4 4 5 6 3 2 6 3 0 6 4 4 5 1 3 2 3 12 7 7 11 11 10 9 9 10
17 16 17 18 19 22 25 28 21 8 1 4 2 3 9 2 0 2 2 4 4 3 4 3 5 4 4 4 5 7 4 3 9 6 3 5 12 6 7 9 11 13 14 13 10
16 17 15 17 19 20 26 25 11 2 0 1 1 4 2 3 1 2 2 4 3 3 3 6 6 4 4 4 4 5 4 5 8 2 3 5 18 14 8 12 19 16 14 14 14
14 15 16 15 18 19 13 7 7 5 4 6 4 4 0 1 1 2 2 4 3 2 5 3 3 7 8 7 4 4 4 8 6 5 4 11 14 22 9 11 15 12 14 17 19
13 14 16 18 17 20 1 4 2 2 10 4 4 5 3 1 2 3 3 5 4 7 4 3 9 6 4 4 5 4 3 9 9 1 6 11 17 17 17 12 14 17 17 21 16
13 14 13 13 17 4 3 2 3 1 1 10 4 4 3 6 6 4 8 5 5 6 7 8 4 6 6 5 5 4 6 6 8 6 5 8 10 7 7 7 7 10 12 16 20
12 13 12 15 2 3 1 4 2 2 4 10 4 3 3 3 4 1 4 3 2 10 8 7 2 7 4 6 8 5 6 3 4 5 5 5 14 5 7 11 7 9 11 14 18
7 11 6 5 3 1 0 3 3 3 5 7 4 2 2 4 3 1 1 2 6 6 7 9 8 6 6 8 8 8 3 3 1 3 4 4 6 8 3 8 19 9 14 14 16
8 7 1 1 1 2 1 1 2 6 10 6 4 5 4 3 2 2 2 4 1 4 3 7 1 6 7 3 3 5 3 5 4 1 3 6 8 5 7 10 7 6 6 10 12
10 7 5 3 3 2 1 3 3 7 3 6 7 4 3 7 5 7 7 7 9 4 7 1 5 2 3 4 2 3 6 4 6 3 11 4 4 12 9 11 11 10 5 9 11
11 9 5 2 3 4 2 5 10 8 9 3 2 2 6 7 5 5 5 6 8 2 4 6 10 10 6 7 8 7 9 8 9 5 10 2 12 10 11 9 6 5 8 8 10
11 3 3 4 6 3 3 7 11 10 9 9 3 3 5 4 4 6 9 6 9 14 12 8 9 2 1 2 4 6 7 3 5 3 3 7 9 8 10 10 8 8 7 10 11
4 3 6 11 9 3 3 21 9 9 8 5 14 12 11 9 8 9 10 6 7 15 1 4 5 2 3 3 2 4 4 5 2 3 7 12 17 15 14 10 10 8 11 9 9
4 3 1 12 7 3 11 12 8 9 8 10 11 8 10 10 9 8 9 4 7 6 5 6 5 3 3 10 12 4 4 1 2 6 7 4 17 5 8 11 11 11 11 11 13
6 6 7 11 7 6 16 8 7 8 6 10 7 13 13 12 10 9 13 14 11 11 12 8 6 9 16 1 2 2 8 12 8 9 4 4 30 1 7 9 8 9 11 8 10
5 5 4 7 12 16 4 5 7 5 10 16 12 9 7 10 5 11 12 5 12 13 13 11 5 8 7 2 2 8 8 7 1 3 13 8 26 6 6 9 8 10 9 9 10
5 6 5 6 6 13 15 11 9 3 17 6 5 7 3 7 10 10 5 7 9 11 6 17 9 13 20 13 7 7 12 15 23 13 15 34 27 45 21 25 28 16 10 11 13
6 5 6 9 18 18 9 6 18 10 7 8 11 19 9 13 17 20 8 2 1 3 1 10 15 18 22 28 6 8 14 17 21 29 21 33 29 37 27 31 29 18 9 9 11
7 7 5 3 12 23 23 22 29 17 8 9 20 10 21 23 30 26 21 5 11 6 6 2 14 12 25 19 9 9 34 17 25 26 26 28 40 28 31 28 27 27 10 11 14
8 3 8 12 13 12 23 34 34 25 21 24 19 17 20 27 25 24 5 4 12 15 12 8 5 3 26 4 7 9 30 31 34 26 26 29 42 31 31 26 26 19 11 13 15
Wind_Direction
1 0 357 355 353 348 345 345 341 339 341 337 345 336 340 341 332 39 50 237 284 312 320 276 49 2 61 80 71 132 61 177 197 158 237 167 142 46 38 125 184 249 174 225 140
358 355 355 351 349 348 344 343 339 333 335 337 341 333 335 341 46 59 186 295 289 306 44 51 11 359 56 50 33 78 103 219 190 200 230 175 163 166 155 162 231 276 74 120 126
354 351 351 350 345 343 344 342 334 329 330 333 332 325 323 327 330 188 120 328 324 232 89 81 48 38 67 33 11 135 170 219 252 222 208 192 147 168 146 220 204 198 180 168 145
351 349 348 348 345 342 340 342 334 324 321 324 324 311 316 101 254 152 7 349 358 137 93 52 22 42 60 42 351 34 37 240 294 235 147 250 123 227 199 217 336 198 164 158 165
346 347 343 343 344 341 337 338 337 324 316 315 313 298 264 1 249 13 8 0 23 53 53 70 60 75 37 331 7 96 303 309 289 288 248 118 226 238 241 262 105 134 150 168 174
340 338 341 341 341 339 335 332 334 325 318 307 294 305 103 242 125 41 39 63 50 57 30 37 112 138 101 83 125 265 266 257 260 248 248 206 242 354 272 117 131 156 177 175 177
338 339 337 339 339 336 331 326 327 324 316 297 270 327 117 236 85 57 87 100 48 91 108 38 117 91 116 23 323 291 325 317 209 206 246 160 281 239 140 142 162 183 190 183 198
334 336 336 337 337 334 328 321 320 315 307 177 130 35 245 17 165 72 105 76 66 48 98 128 101 107 65 248 15 25 49 5 220 155 4 125 270 264 170 160 198 201 201 198 208
328 330 333 336 335 332 325 315 313 309 72 138 111 121 272 343 318 106 28 125 79 58 58 98 71 94 42 73 11 8 283 293 313 201 130 169 271 251 169 192 212 210 206 206 208
322 327 327 335 332 329 324 305 290 70 157 223 14 47 274 224 142 85 20 115 110 100 50 46 52 69 49 83 239 242 284 263 248 233 194 224 264 267 207 201 220 216 208 208 207
317 325 326 331 328 326 340 352 10 345 19 198 201 239 0 30 75 87 127 93 78 95 189 7 88 213 225 201 177 164 198 241 251 242 245 248 251 273 254 218 234 219 206 211 212
312 319 322 326 320 320 336 68 99 154 309 281 241 275 240 193 283 213 122 158 152 204 116 39 236 201 125 143 169 164 224 262 280 300 191 267 258 262 255 243 221 218 214 214 201
309 312 313 315 315 13 10 64 332 283 212 293 233 214 197 144 218 243 147 149 168 179 189 175 208 115 150 170 171 211 195 235 238 327 255 298 265 243 277 267 241 221 221 214 205
303 307 312 315 80 319 30 319 332 309 47 271 254 272 83 129 259 79 205 140 192 208 163 230 198 172 170 214 153 243 211 233 287 6 257 27 290 253 248 276 245 234 212 210 203
271 301 315 21 298 136 322 309 309 70 306 266 202 157 122 171 115 284 329 92 193 183 131 241 170 177 190 214 165 224 139 166 143 219 346 238 278 261 19 264 266 251 226 216 202
224 269 194 325 345 253 183 317 47 49 247 290 167 184 146 180 188 117 132 55 109 136 254 248 313 172 205 89 158 126 97 61 59 71 288 222 190 220 186 207 253 247 230 207 197
211 219 157 139 260 155 173 76 45 191 288 235 215 187 194 188 213 179 168 177 175 147 222 276 211 179 155 115 60 105 75 319 327 351 239 165 220 251 229 220 220 250 282 221 191
199 153 187 206 141 138 75 57 215 202 207 40 94 78 196 156 243 180 157 216 240 95 112 182 276 177 177 194 180 176 169 167 230 230 278 345 247 263 226 252 253 241 254 234 188
138 148 171 197 147 92 87 213 208 180 194 166 108 176 239 228 206 154 211 217 209 172 188 173 263 106 166 140 139 183 191 171 100 113 342 239 274 281 261 275 261 257 250 234 197
163 197 190 155 153 143 104 237 213 196 146 151 197 181 206 201 174 185 177 196 223 196 98 222 305 170 158 136 44 175 172 79 6 252 264 267 275 250 240 236 240 237 234 232 200
159 217 231 140 139 190 221 228 214 209 164 172 205 222 208 188 196 206 220 230 207 164 157 144 153 223 123 212 167 135 214 121 158 160 200 278 266 203 220 189 220 223 225 214 199
173 207 159 161 179 206 231 195 209 219 187 242 197 211 196 184 201 220 212 215 156 151 162 202 157 232 232 211 332 222 198 174 195 228 254 139 272 197 200 207 220 225 232 217 201
204 183 195 191 204 214 238 271 240 204 193 223 230 201 194 195 232 190 218 205 158 156 168 178 219 249 262 87 12 221 197 222 240 128 201 176 254 106 203 242 221 233 227 217 197
159 174 166 233 226 208 220 246 244 251 245 260 258 184 125 237 235 257 228 207 197 194 201 161 178 195 230 228 134 185 216 218 218 225 229 233 259 267 266 277 272 261 227 216 202
174 192 195 193 216 221 191 201 230 230 215 202 250 229 204 237 247 242 240 237 212 228 211 173 229 226 246 255 180 210 235 215 216 227 217 250 243 254 264 264 273 278 246 205 192
202 170 179 223 211 210 213 227 243 237 182 221 228 230 228 237 233 247 233 173 216 5 189 220 249 246 254 254 196 249 255 238 230 236 244 253 260 259 268 279 282 277 256 211 202
229 202 187 189 207 209 212 221 228 231 244 245 237 239 243 239 246 261 274 216 239 224 194 174 194 199 251 189 117 265 245 239 255 237 230 242 251 275 270 266 263 267 208 216 209